Weather History for Covington, KY

Change the Weather History Date:

Tuesday, July 24, 2012

  Actual Average Record
Temperature  
Mean Temperature 82 °F 76 °F  
Max Temperature 90 °F 86 °F 106 °F (1934)
Min Temperature 74 °F 66 °F 54 °F (1947)
Degree Days  
Heating Degree Days 0 0  
Month to date heating degree days 0 0  
Since 1 June heating degree days 12 15  
Since 1 July heating degree days 0 0  
Cooling Degree Days 17 11  
Month to date cooling degree days 405 262  
Year to date cooling degree days 869 582  
Since 1 June cooling degree days 666 488  
Growing Degree Days 32 (Base 50)    
Moisture  
Dew Point 70 °F    
Average Humidity 67    
Maximum Humidity 88    
Minimum Humidity 45    
Precipitation  
Precipitation 0.01 in 0.13 in 2.56 in (1978)
Month to date precipitation 1.27 2.90  
Year to date precipitation 20.10 25.52  
Snow  
Snow 0.00 in 0.00 in 0.00 in ()
Month to date snowfall 0.0 0.0  
Since 1 June snowfall 0.0 0.0  
Since 1 July snowfall 0.0 0.0  
Snow Depth 0.00 in    
Sea Level Pressure  
Sea Level Pressure 29.94 in    
Wind  
Wind Speed 7 mph (WSW)    
Max Wind Speed 33 mph    
Max Gust Speed 38 mph    
Visibility 10 miles    
Events Rain , Thunderstorm    
T = Trace of Precipitation, MM = Missing Value Source: NWS Daily Summary

Daily Weather History Graph

Daily Weather History Graph

Search for Another Location

Airport:

Trip Planner

Search our weather history database for the weather conditions in past years. The results will help you decide how hot, cold, wet, or windy it might be!

Date:

Astronomy

Jul. 24, 2012 Rise Set
Actual Time 6:32 AM EDT 8:57 PM EDT
Civil Twilight 6:02 AM EDT 9:27 PM EDT
Nautical Twilight 5:24 AM EDT 10:04 PM EDT
Astronomical Twilight 4:43 AM EDT 10:46 PM EDT
Moon 12:25 PM EDT (7/24) 11:48 PM EDT (7/24)
Length of Visible Light 15h 25m
Length of Day
14h 24m
Waxing Crescent, 31% of the Moon is Illuminated
Jul 24
Waxing Crescent
Jul 26
First Quarter
Aug 1
Full
Aug 9
Last Quarter
Aug 17
New

Hourly Weather History & Observations

Time (EDT) Temp. Heat Index Dew Point Humidity Pressure Visibility Wind Dir Wind Speed Gust Speed Precip Events Conditions
12:52 AM 84.0 °F 87.8 °F 69.1 °F 61% 29.96 in 10.0 mi SW 9.2 mph - N/A   Clear
1:52 AM 82.9 °F 87.0 °F 70.0 °F 65% 29.96 in 10.0 mi SW 6.9 mph - N/A   Partly Cloudy
2:52 AM 82.9 °F 87.0 °F 70.0 °F 65% 29.95 in 10.0 mi SW 9.2 mph - N/A   Mostly Cloudy
3:52 AM 82.0 °F 86.3 °F 71.1 °F 69% 29.93 in 10.0 mi SW 8.1 mph - N/A   Overcast
4:52 AM 82.0 °F 86.3 °F 71.1 °F 69% 29.93 in 10.0 mi WSW 9.2 mph - N/A   Overcast
5:52 AM 82.0 °F 86.3 °F 71.1 °F 69% 29.94 in 10.0 mi West 10.4 mph - N/A   Overcast
6:52 AM 81.0 °F 84.9 °F 71.1 °F 72% 29.96 in 10.0 mi NW 9.2 mph - 0.00 in Rain Light Rain
7:52 AM 79.0 °F - 72.0 °F 79% 29.97 in 9.0 mi WNW 5.8 mph - 0.00 in   Overcast
7:58 AM 78.8 °F - 71.6 °F 78% 30.02 in 8.0 mi NW 8.1 mph - N/A Rain , Thunderstorm Light Thunderstorms and Rain
8:30 AM 78.8 °F - 73.4 °F 83% 30.00 in 7.0 mi WSW 3.5 mph - 0.01 in Rain Light Rain
8:52 AM 77.0 °F - 73.0 °F 88% 29.96 in 7.0 mi SSW 5.8 mph - 0.01 in   Overcast
9:52 AM 80.1 °F 84.2 °F 73.0 °F 79% 29.96 in 9.0 mi WSW 5.8 mph - N/A   Overcast
10:52 AM 82.9 °F 88.0 °F 72.0 °F 69% 29.95 in 10.0 mi SW 8.1 mph - N/A   Overcast
11:52 AM 84.0 °F 89.0 °F 71.1 °F 65% 29.98 in 10.0 mi WNW 12.7 mph - N/A   Overcast
12:37 PM 75.2 °F - 64.4 °F 69% 30.07 in 10.0 mi NE 21.9 mph 38.0 mph N/A   Overcast
12:52 PM 75.9 °F - 64.9 °F 69% 30.01 in 10.0 mi NE 9.2 mph - N/A   Overcast
1:52 PM 80.1 °F 81.7 °F 64.0 °F 58% 29.96 in 10.0 mi Calm Calm - N/A   Overcast
2:52 PM 86.0 °F 86.8 °F 63.0 °F 46% 29.93 in 10.0 mi Calm Calm - N/A   Overcast
3:52 PM 90.0 °F 92.4 °F 66.0 °F 45% 29.91 in 10.0 mi SSW 10.4 mph - N/A   Mostly Cloudy
4:52 PM 89.1 °F 92.1 °F 66.9 °F 48% 29.90 in 10.0 mi Variable 5.8 mph - N/A   Overcast
5:52 PM 89.1 °F 93.7 °F 69.1 °F 52% 29.89 in 10.0 mi Variable 4.6 mph - N/A   Overcast
6:52 PM 89.1 °F 94.1 °F 70.0 °F 53% 29.88 in 10.0 mi SSW 4.6 mph - N/A   Mostly Cloudy
7:52 PM 87.1 °F 93.6 °F 72.0 °F 61% 29.89 in 9.0 mi SSW 4.6 mph - N/A   Mostly Cloudy
8:52 PM 82.9 °F 88.8 °F 73.0 °F 72% 29.88 in 8.0 mi SSW 4.6 mph - N/A   Mostly Cloudy
9:52 PM 84.0 °F 90.2 °F 73.0 °F 69% 29.88 in 9.0 mi North 6.9 mph - N/A   Mostly Cloudy
10:52 PM 82.0 °F 84.5 °F 66.9 °F 60% 29.91 in 10.0 mi NE 9.2 mph - N/A   Mostly Cloudy
11:52 PM 80.1 °F 82.3 °F 66.9 °F 64% 29.93 in 10.0 mi ENE 5.8 mph - N/A   Mostly Cloudy